Regional Weather Roundup
Issued by NWS

Home | Current Version | Previous Version | Text Only | Print | Product List | Glossary Off
Versions: 1 2 3 4 5 6 7 8 9 10 11 12 13 14 15 16 17 18 19 20 21 22 23 24 25 26 27 28 29 30 31 32 33 34 35 36 37 38 39 40 41 42 43 44 45 46 47 48 49 50

000
ASUS43 KLMK 220210
RWRKY
KENTUCKY REGIONAL WEATHER ROUNDUP
NATIONAL WEATHER SERVICE LOUISVILLE KY
1000 PM EDT SUN SEP 21 2014

NOTE "FAIR" INDICATES FEW OR NO CLOUDS BELOW 12,000 FEET
WITH NO SIGNIFICANT WEATHER AND/OR OBSTRUCTIONS TO VISIBILITY.

KYZ001>023-026-027-061>063-070>075-220300-
WESTERN AND SOUTH CENTRAL KENTUCKY

CITY           SKY/WX    TMP DP  RH WIND       PRES   REMARKS
PADUCAH        CLEAR     69  51  52 N7        30.05R
HENDERSON      CLEAR     66  48  52 N7        30.06R
OWENSBORO      CLEAR     67  51  56 N10G17    30.06R
HOPKINSVILLE   CLEAR     68  49  51 NW6       30.04R
BOWLING GREEN  PTCLDY    69  48  47 NW5       30.03R
GLASGOW        CLEAR     60  50  69 CALM      30.02R
$$

KYZ024-025-028>034-038-045-046-053-220300-
NORTH CENTRAL KENTUCKY

CITY           SKY/WX    TMP DP  RH WIND       PRES   REMARKS
LOUISVILLE/SDF CLEAR     66  50  56 N12G22    30.03R
LOUISVILLE/LOU CLEAR     66  50  56 N8        30.04R
FORT KNOX      CLEAR     64  51  63 NW8       30.03R
$$

KYZ035>037-039>044-047>052-055>060-089>105-220300-
NORTHEAST KENTUCKY

CITY           SKY/WX    TMP DP  RH WIND       PRES   REMARKS
LEXINGTON      PTCLDY    65  50  58 N10       30.02R
COVINGTON      CLEAR     62  45  53 NW18G30   30.02R
FRANKFORT      CLEAR     64  48  56 NW9       30.02R
$$

KYZ054-064>069-076>088-106>120-220300-
SOUTHEAST KENTUCKY

CITY           SKY/WX    TMP DP  RH WIND       PRES   REMARKS
JACKSON        CLEAR     65  47  52 W6        29.99R
LONDON         CLEAR     66  48  52 CALM      30.01R
SOMERSET       CLEAR     64  45  48 CALM      30.02R
MIDDLESBORO    CLEAR     69  50  50 N8        30.00R
MONTICELLO     CLEAR     63  51  64 W3        30.03R
$$




USA.gov is the U.S. government's official web portal to all federal, state and local government web resources and services.